Location: Rowland
(34.5359°N, 79.2929°W)
Time: 13:56:07
(UTC+00:00)

SR - Pass Details

Date: 11 October 2022
Orbit: 577 x 875 km, 66.7° (Epoch: 28 November)

Event Time Altitude Azimuth Distance (km) Brightness Sun altitude
Rises 23:55:34 0° 210° (SSW) 3,401 ? -14.5°
Reaches altitude 10° 23:58:01 10° 213° (SSW) 2,490 ? -15.0°
Maximum altitude 00:03:50 73° 298° (WNW) 915 ? -16.2°
Drops below altitude 10° 00:09:43 10° 22° (NNE) 2,517 ? -17.4°
Sets 00:12:12 0° 25° (NNE) 3,439 ? -17.9°
